[[{"header":{"parameterUnit":"m.s-1","parameterCategory":1,"la1":30.2991,"la2":30.254,"lo1":-89.0895,"lo2":-89.0444,"dy":0.0017,"dx":0.0017,"nx":28,"ny":28,"refTime":"2025-02-06T09:00:00:Z","depth":0,"parameterNumber":2,"parameterNumberName":"U-component_of_WINDS"},"data":[0,0,0,0,0,0,0,0,0,0,0,0,0,0,0,0,0,0,0,0,0,0,0,0,0,0,0,0,0,0,0,0,0,0,0,0,0,0,0,0,0,0,0,0,0,0,0,0,0,0,0,0,0,0,0,0,0,0,-1.1568,-1.1567,0,-1.1475,-1.1474,-1.1473,-1.139,-1.1389,-1.1388,-1.1387,-1.129,-1.1288,-1.1286,0,0,0,0,0,0,0,0,0,0,0,0,0,-1.1671,-1.1669,-1.1568,-1.1567,-1.1566,-1.1475,-1.1474,-1.1473,-1.139,-1.1389,-1.1388,-1.1387,-1.129,-1.1288,-1.1286,0,0,0,0,0,0,0,0,0,0,0,0,0,-1.1607,-1.1669,-1.1568,-1.1514,-1.1508,-1.1476,-1.1474,-1.1472,-1.1391,-1.1389,-1.1388,-1.1386,-1.1291,-1.1288,-1.1286,-1.13,0,0,-1.1278,-1.1277,0,0,0,0,0,0,0,0,-1.1611,-1.1603,-1.1523,-1.1517,-1.1511,-1.1443,-1.1475,-1.1414,-1.1391,-1.1435,-1.1387,-1.1386,-1.1342,-1.1335,-1.1321,-1.1295,-1.1291,-1.1278,-1.1276,-1.1275,-1.1275,0,0,0,0,0,0,0,-1.1615,-1.1607,-1.1531,-1.1522,-1.1514,-1.1493,-1.1482,-1.1463,-1.1398,-1.1431,-1.1425,-1.1415,-1.1338,-1.1323,-1.1318,-1.1289,-1.1278,-1.1276,-1.1274,-1.1273,-1.1269,-1.1271,0,0,0,0,0,0,-1.1628,-1.1611,-1.1534,-1.1528,-1.1558,-1.1492,-1.148,-1.1466,-1.1398,-1.1386,-1.1416,-1.1412,-1.1328,-1.1321,-1.1314,-1.1325,-1.1275,-1.1273,-1.1272,-1.1268,-1.127,-1.1271,0,0,0,0,0,0,-1.1631,-1.1622,-1.1538,-1.1568,-1.1556,-1.1492,-1.1477,-1.1465,-1.145,-1.1387,-1.1374,-1.1413,-1.1327,-1.1317,-1.1304,-1.132,-1.1272,-1.127,-1.1266,-1.1268,-1.127,-1.1347,0,0,0,0,0,0,-1.1634,-1.1624,-1.1629,-1.1569,-1.1554,-1.153,-1.1478,-1.1464,-1.1446,-1.1439,-1.138,-1.1369,-1.1325,-1.1308,-1.1301,-1.1316,-1.1268,-1.1264,-1.1267,-1.127,-1.1343,-1.1352,-1.1359,0,0,0,0,0,-1.1638,-1.1654,-1.163,-1.1621,-1.156,-1.1531,-1.1523,-1.1472,-1.1448,-1.1452,-1.1411,-1.1371,-1.132,-1.1307,-1.1299,-1.1313,-1.1263,-1.1266,-1.127,-1.1339,-1.135,-1.1359,0,0,0,0,0,0,-1.1717,-1.1645,-1.1617,-1.1614,-1.158,-1.1518,-1.1521,-1.1485,-1.1457,-1.1451,-1.1388,-1.1376,-1.1369,-1.1339,-1.1327,-1.1322,-1.1286,-1.1288,-1.1342,-1.1351,-1.1359,-1.1366,-1.1265,0,0,0,0,0,-1.1734,-1.1718,-1.1655,-1.1658,-1.1643,-1.1585,-1.1571,-1.1535,-1.1497,-1.1481,-1.1439,-1.1403,-1.1378,-1.1363,-1.1337,-1.1338,-1.1324,-1.1344,-1.1352,-1.1359,-1.1361,-1.1359,-1.1367,-1.1282,-1.1282,-1.1282,0,0,-1.1768,-1.1727,-1.1721,-1.1673,-1.1642,-1.1626,-1.1573,-1.1559,-1.1546,-1.1479,-1.1463,-1.1431,-1.1386,-1.138,-1.1375,-1.1355,-1.1381,-1.1363,-1.1369,-1.1367,-1.1363,-1.1371,-1.1378,-1.1284,-1.1283,-1.1283,0,0,-1.1823,-1.1791,-1.179,-1.176,-1.1714,-1.1676,-1.1676,-1.1619,-1.1596,-1.1579,-1.1529,-1.1512,-1.1471,-1.1441,-1.142,-1.1464,-1.1426,-1.1457,-1.15,-1.1498,-1.1505,-1.1511,-1.1526,-1.1532,-1.146,-1.146,-1.146,0,-1.1872,-1.1847,-1.1794,-1.1782,-1.1762,-1.1702,-1.1699,-1.1673,-1.1621,-1.1608,-1.1587,-1.1534,-1.1499,-1.1485,-1.1496,-1.1482,-1.1479,-1.1464,-1.1509,-1.1514,-1.1518,-1.1532,-1.1538,-1.1464,-1.1464,-1.1463,-1.1463,0,-1.1909,-1.1892,-1.1896,-1.1848,-1.1829,-1.1822,-1.1767,-1.1754,-1.172,-1.1684,-1.1667,-1.1624,-1.1588,-1.1582,-1.1548,-1.1562,-1.1551,-1.1521,-1.1483,-1.1531,-1.1543,-1.1548,-1.147,-1.1468,-1.1467,-1.1466,0,0,-1.201,-1.1933,-1.1935,-1.1913,-1.1858,-1.1843,-1.1834,-1.1799,-1.1789,-1.1755,-1.1744,-1.1711,-1.1682,-1.1659,-1.1621,-1.162,-1.1657,-1.1588,-1.1586,-1.1602,-1.1669,-1.1693,-1.17,-1.1632,-1.1632,-1.1633,-1.1673,0,-1.2056,-1.2035,-1.1987,-1.1982,-1.1965,-1.1907,-1.1898,-1.1863,-1.1829,-1.1809,-1.1771,-1.1749,-1.1712,-1.1698,-1.1694,-1.1653,-1.1669,-1.165,-1.162,-1.162,-1.1633,-1.1706,-1.173,-1.177,-1.1677,-1.1678,-1.1678,0,-1.2106,-1.2076,-1.207,-1.2015,-1.2006,-1.2,-1.1964,-1.1946,-1.1905,-1.188,-1.1854,-1.1813,-1.1798,-1.1764,-1.1743,-1.1731,-1.1716,-1.1694,-1.1694,-1.1689,-1.1652,-1.1702,-1.1782,-1.1788,-1.1685,-1.1685,-1.1684,0,-1.218,-1.2139,-1.2129,-1.2111,-1.2048,-1.2044,-1.2018,-1.1975,-1.1957,-1.1926,-1.1913,-1.1881,-1.1862,-1.1838,-1.1788,-1.1768,-1.1772,-1.1734,-1.175,-1.1751,-1.1753,-1.1753,-1.1831,-1.1745,-1.1745,-1.1745,-1.1744,0,-1.2236,-1.2234,-1.2161,-1.2155,-1.2151,-1.2095,-1.2092,-1.206,-1.2022,-1.2008,-1.1956,-1.1944,-1.1879,-1.186,-1.1821,-1.1808,-1.1801,-1.178,-1.1769,-1.1784,-1.1787,-1.1773,-1.1768,-1.1746,-1.1746,-1.1745,-1.1745,0,-1.2318,-1.2269,-1.2255,-1.2196,-1.2181,-1.2181,-1.213,-1.2121,-1.2084,-1.2067,-1.206,-1.2001,-1.1975,-1.1924,-1.1883,-1.1856,-1.1853,-1.1835,-1.1867,-1.1861,-1.188,-1.1879,-1.1951,-1.1957,-1.1868,-1.1869,-1.187,0,-1.2356,-1.2353,-1.2294,-1.2282,-1.2257,-1.2237,-1.2219,-1.2164,-1.2147,-1.21,-1.2097,-1.2067,-1.204,-1.2001,-1.1954,-1.1922,-1.1903,-1.193,-1.1897,-1.1912,-1.1902,-1.1903,-1.1902,-1.1937,-1.1939,-1.194,-1.194,0,-1.2429,-1.2405,-1.2382,-1.235,-1.233,-1.2301,-1.227,-1.2263,-1.22,-1.2184,-1.2157,-1.2136,-1.2095,-1.2065,-1.2027,-1.1998,-1.1959,-1.1951,-1.1953,-1.1968,-1.1987,-1.1976,-1.1887,-1.195,-1.1949,-1.1948,-1.1948,-1.1947,-1.249,-1.2484,-1.2442,-1.2417,-1.2388,-1.2361,-1.235,-1.2312,-1.2289,-1.2251,-1.222,-1.2196,-1.2153,-1.2098,-1.2072,-1.2051,-1.2032,-1.2035,-1.2036,-1.2037,-1.2043,-1.1991,-1.2044,-1.2044,-1.2043,-1.2043,-1.2043,0,-1.256,-1.253,-1.2508,-1.2466,-1.2447,-1.2413,-1.2376,-1.2362,-1.2341,-1.2306,-1.2281,-1.2249,-1.222,-1.2172,-1.2139,-1.2131,-1.2113,-1.2125,-1.2124,-1.2118,-1.2062,-1.2064,-1.214,-1.214,-1.214,-1.214,-1.214,-1.214,-1.2594,-1.2583,-1.2554,-1.2528,-1.2497,-1.2474,-1.2456,-1.243,-1.2401,-1.2369,-1.2345,-1.2314,-1.2273,-1.2236,-1.2208,-1.2194,-1.2184,-1.2202,-1.2182,-1.2131,-1.2122,-1.2113,-1.2114,-1.22,-1.22,-1.2239,-1.2239,-1.224]},{"header":{"parameterUnit":"m.s-1","parameterCategory":1,"la1":30.2991,"la2":30.254,"lo1":-89.0895,"lo2":-89.0444,"dy":0.0017,"dx":0.0017,"nx":28,"ny":28,"refTime":"2025-02-06T09:00:00:Z","depth":0,"parameterNumber":3,"parameterNumberName":"V-component_of_WINDS"},"data":[0,0,0,0,0,0,0,0,0,0,0,0,0,0,0,0,0,0,0,0,0,0,0,0,0,0,0,0,0,0,0,0,0,0,0,0,0,0,0,0,0,0,0,0,0,0,0,0,0,0,0,0,0,0,0,0,0,0,1.4895,1.4895,0,1.4849,1.4848,1.4848,1.4854,1.4855,1.4856,1.4857,1.4804,1.4802,1.48,0,0,0,0,0,0,0,0,0,0,0,0,0,1.4986,1.4984,1.4896,1.4895,1.4894,1.4849,1.4848,1.4848,1.4854,1.4855,1.4856,1.4857,1.4805,1.4803,1.48,0,0,0,0,0,0,0,0,0,0,0,0,0,1.4944,1.4984,1.4896,1.4892,1.4892,1.4849,1.4848,1.4848,1.4854,1.4855,1.4856,1.4858,1.4806,1.4803,1.48,1.4756,0,0,1.479,1.4789,0,0,0,0,0,0,0,0,1.4946,1.494,1.4893,1.4892,1.4892,1.4859,1.4861,1.4817,1.4854,1.4868,1.4857,1.4858,1.4821,1.4817,1.4805,1.4754,1.4752,1.479,1.4788,1.4786,1.4785,0,0,0,0,0,0,0,1.4949,1.4942,1.4877,1.4893,1.4892,1.4892,1.4887,1.4853,1.4838,1.4867,1.4867,1.4862,1.4821,1.4808,1.4804,1.4751,1.479,1.4787,1.4785,1.4784,1.4661,1.466,0,0,0,0,0,0,1.4953,1.4945,1.4878,1.4876,1.4922,1.4889,1.4884,1.4868,1.4839,1.4836,1.4861,1.4863,1.4813,1.4808,1.4802,1.475,1.4786,1.4783,1.4782,1.4663,1.4661,1.466,0,0,0,0,0,0,1.4955,1.4947,1.488,1.491,1.4902,1.4886,1.4868,1.4866,1.4854,1.4835,1.4832,1.4851,1.4814,1.4807,1.4768,1.4748,1.4782,1.4779,1.4664,1.4662,1.466,1.4645,0,0,0,0,0,0,1.4958,1.4948,1.4932,1.491,1.49,1.4848,1.4867,1.4865,1.4849,1.4851,1.4824,1.4821,1.4814,1.4773,1.4765,1.4744,1.4777,1.4666,1.4663,1.4661,1.4647,1.4642,1.4638,0,0,0,0,0,1.4961,1.4929,1.4932,1.4923,1.488,1.4847,1.4841,1.4835,1.4848,1.4831,1.4818,1.4822,1.4752,1.4769,1.476,1.4738,1.4667,1.4664,1.4661,1.4649,1.4643,1.4639,0,0,0,0,0,0,1.4947,1.4926,1.4929,1.4888,1.487,1.4848,1.4827,1.483,1.4806,1.4808,1.48,1.4794,1.4755,1.4743,1.4762,1.4695,1.4711,1.4706,1.4704,1.4699,1.4695,1.4699,1.4774,0,0,0,0,0,1.494,1.4916,1.4898,1.4864,1.4854,1.4842,1.4827,1.4825,1.4804,1.4796,1.4781,1.476,1.4733,1.4715,1.4689,1.4645,1.4639,1.4626,1.4621,1.4618,1.4614,1.459,1.4583,1.465,1.465,1.465,0,0,1.4923,1.4909,1.4894,1.486,1.4846,1.482,1.4835,1.4807,1.4788,1.4791,1.4754,1.4742,1.4718,1.4677,1.4657,1.4665,1.4594,1.4614,1.4612,1.4609,1.4586,1.458,1.4574,1.4648,1.4648,1.4649,0,0,1.4881,1.4867,1.4838,1.4823,1.4802,1.4794,1.4787,1.4765,1.4758,1.4721,1.4723,1.4699,1.4653,1.4636,1.4621,1.4573,1.4575,1.4565,1.4543,1.4519,1.4514,1.4509,1.4492,1.4486,1.456,1.456,1.456,0,1.4863,1.4826,1.4822,1.4794,1.4779,1.4783,1.4753,1.4738,1.4708,1.4697,1.4706,1.4649,1.4633,1.4588,1.4576,1.4564,1.4555,1.4567,1.4515,1.451,1.4506,1.4489,1.4483,1.4559,1.4559,1.4559,1.456,0,1.4805,1.4779,1.4757,1.4731,1.4713,1.4684,1.4675,1.4657,1.4656,1.4647,1.4609,1.4591,1.4561,1.455,1.4548,1.4504,1.451,1.4517,1.4533,1.4498,1.4483,1.4476,1.4558,1.4558,1.4558,1.4559,0,0,1.4752,1.4724,1.4716,1.4705,1.4681,1.466,1.4631,1.4604,1.4589,1.4568,1.4543,1.4504,1.4511,1.4494,1.449,1.447,1.4433,1.4479,1.4479,1.4471,1.4383,1.4378,1.4371,1.4434,1.4433,1.4432,1.4385,0,1.4707,1.4657,1.4653,1.4608,1.4583,1.4587,1.4561,1.4543,1.4534,1.4511,1.45,1.4473,1.4485,1.4475,1.4454,1.4441,1.4415,1.4445,1.4409,1.4408,1.4415,1.4362,1.4356,1.4313,1.4379,1.4378,1.4377,0,1.4648,1.4628,1.458,1.4561,1.455,1.4528,1.4503,1.4481,1.4461,1.4455,1.4437,1.4436,1.4405,1.4422,1.4379,1.4399,1.4384,1.4376,1.4374,1.437,1.439,1.4357,1.4299,1.4293,1.4367,1.4368,1.4369,0,1.4614,1.4575,1.4541,1.4531,1.4507,1.4491,1.448,1.4461,1.4445,1.4423,1.4413,1.4386,1.4372,1.4351,1.4342,1.4356,1.4299,1.4316,1.4293,1.4293,1.428,1.4281,1.4219,1.4271,1.4271,1.4271,1.4271,0,1.4565,1.4535,1.4526,1.4506,1.4473,1.4468,1.4435,1.4425,1.4408,1.4385,1.4385,1.4363,1.4353,1.4329,1.4322,1.4286,1.4279,1.4274,1.4272,1.4274,1.4274,1.4264,1.4266,1.4269,1.427,1.427,1.427,0,1.4521,1.4514,1.4478,1.4459,1.4454,1.443,1.4414,1.4393,1.4385,1.4355,1.4348,1.4334,1.4305,1.4295,1.426,1.4255,1.4214,1.4215,1.4221,1.4221,1.4199,1.4201,1.4127,1.4117,1.4176,1.4175,1.4175,0,1.449,1.4468,1.4448,1.4433,1.4422,1.4398,1.4383,1.4377,1.436,1.4336,1.4318,1.429,1.4268,1.4222,1.4207,1.418,1.418,1.4157,1.4176,1.4178,1.418,1.4181,1.4179,1.4153,1.4152,1.4152,1.4151,0,1.4436,1.4434,1.4412,1.4389,1.4371,1.4352,1.4334,1.4321,1.4313,1.4294,1.4266,1.4249,1.4214,1.4185,1.4158,1.4145,1.4146,1.4145,1.4139,1.414,1.4145,1.4142,1.4211,1.4147,1.4147,1.4148,1.4148,1.4148,1.4398,1.4379,1.4362,1.4337,1.4323,1.4307,1.4287,1.4277,1.4254,1.4226,1.4223,1.4193,1.4173,1.4136,1.4122,1.4097,1.4103,1.4094,1.4091,1.4089,1.4087,1.4149,1.4092,1.4092,1.4092,1.4092,1.4092,0,1.4344,1.4333,1.4311,1.4287,1.4267,1.4272,1.4252,1.4235,1.4209,1.4191,1.4169,1.4137,1.411,1.4094,1.4066,1.405,1.4049,1.4043,1.4044,1.404,1.4083,1.4092,1.4043,1.4043,1.4043,1.4043,1.4043,1.4043,1.4313,1.4281,1.4277,1.4238,1.4227,1.4198,1.4187,1.4171,1.4156,1.4121,1.4099,1.4089,1.4072,1.4043,1.4018,1.4014,1.4004,1.3996,1.3992,1.4032,1.4037,1.4042,1.405,1.3994,1.3994,1.3952,1.3951,1.3951]}]]